Weather reports worldwide

Advertisment
Mühldorf, Germany (10875): temperature & dewpoint: 10.09.2019 05:00:00 - 16.09.2019 05:00:00 (CEST)Mühldorf, Germany (10875): temperature 5cm & temperature -5cm: 10.09.2019 05:00:00 - 16.09.2019 05:00:00 (CEST)Mühldorf, Germany (10875): temperature -20cm & temperature -100cm: 10.09.2019 05:00:00 - 16.09.2019 05:00:00 (CEST)Mühldorf, Germany (10875): wind speed & gusts: 10.09.2019 05:00:00 - 16.09.2019 05:00:00 (CEST)Mühldorf, Germany (10875): wind direction: 10.09.2019 05:00:00 - 16.09.2019 05:00:00 (CEST)Mühldorf, Germany (10875): reduced air pressure: 10.09.2019 05:00:00 - 16.09.2019 05:00:00 (CEST)Mühldorf, Germany (10875): visibility: 10.09.2019 05:00:00 - 16.09.2019 05:00:00 (CEST)Mühldorf, Germany (10875): sunshine duration: 10.09.2019 05:00:00 - 16.09.2019 05:00:00 (CEST)Mühldorf, Germany (10875): precipitation: 10.09.2019 05:00:00 - 16.09.2019 05:00:00 (CEST)
Date & Time tt [°C] td [°C] tt 5cm [°C] tt -5cm [°C] tt -20cm [°C] tt -100cm [°C] ff [km/h] ff [kn] fx [km/h] fx [kn] dd ppp [hPa] vv [km] sd [min] rr [mm]
16.09.2019 05:00:00 11,7 11,7 9,5 14,4 18,5 17,0 4 2 5 3 WNW 1021,6 0,4 0 0,0
16.09.2019 04:00:00 12,2 12,2 11,1 14,8 18,7 17,0 3 2 6 4 W 1021,7 8 0 0,0
16.09.2019 03:00:00 11,5 11,5 11,4 14,9 18,9 17,0 3 2 4 2 W 1022,3 4,1 0 0,0
16.09.2019 02:00:00 11,3 11,2 10,3 15,3 19,1 17,0 3 1 5 3 W 1022,3 0,2 0 0,0
16.09.2019 01:00:00 12,1 11,6 10,3 16,0 19,3 17,0 0 0 3 2 N 1022,4 16 0 0,0
16.09.2019 00:00:00 12,2 11,6 10,4 16,5 19,4 17,0 3 2 4 2 WNW 1022,5 16 0 0,0
15.09.2019 23:00:00 13,1 12,7 10,7 17,5 19,6 17,0 2 1 3 2 NW 1022,2 14 0 0,0
15.09.2019 22:00:00 14,2 14,0 11,4 18,7 19,6 17,0 0 0 4 2 N 1022,0 16 0 0,0
15.09.2019 21:00:00 14,9 14,2 12,2 20,3 19,6 17,0 3 2 4 2 NW 1021,7 12 0 0,0
15.09.2019 20:00:00 17,3 15,6 14,2 22,7 19,4 17,0 2 1 4 2 N 1021,1 29 4 0,0
15.09.2019 19:00:00 22,6 15,7 20,9 25,6 19,2 17,0 3 2 16 8 WSW 1020,3 49 60 0,0
15.09.2019 18:00:00 24,1 15,2 25,0 27,6 18,8 17,0 11 6 21 11 W 1020,3 35 60 0,0
15.09.2019 17:00:00 24,5 14,8 27,0 29,2 18,4 17,0 13 7 19 11 WNW 1020,8 36 60 0,0
15.09.2019 16:00:00 24,7 14,3 28,1 30,3 17,9 17,0 12 7 18 10 W 1021,3 41 60 0,0
15.09.2019 15:00:00 23,9 14,9 29,2 30,2 17,5 17,0 8 5 15 8 W 1022,1 22 60 0,0
15.09.2019 14:00:00 23,0 15,0 30,4 28,8 17,1 17,0 5 3 16 9 W 1022,9 30 60 0,0
15.09.2019 13:00:00 21,3 14,1 27,0 26,4 16,9 17,0 5 3 9 5 S 1023,8 17 60 0,0
15.09.2019 12:00:00 19,7 14,0 25,1 23,1 16,8 17,0 4 2 8 4 NW 1024,8 14 60 0,0
15.09.2019 11:00:00 17,3 13,2 21,7 19,5 16,8 17,0 4 2 7 4 SSW 1025,6 13 60 0,0
15.09.2019 10:00:00 14,6 12,0 17,0 16,0 16,9 17,0 4 2 7 4 SW 1026,4 13 60 0,0
15.09.2019 09:00:00 11,9 10,6 12,9 12,9 17,1 17,0 0 0 5 3 N 1027,1 5 32 0,0
15.09.2019 08:00:00 8,6 8,6 9,4 11,3 17,3 17,0 4 2 5 3 WNW 1027,7 0,4 0 0,0
15.09.2019 07:00:00 7,6 7,6 6,0 11,2 17,6 17,0 2 1 3 2 WNW 1027,8 0,2 0 0,0
15.09.2019 06:00:00 7,9 7,7 5,7 11,6 17,8 17,0 2 1 3 1 ESE 1027,6 6 0 0,0
15.09.2019 05:00:00 8,1 7,9 6,5 12,2 18,0 17,0 0 0 3 1 N 1027,8 9 0 0,0
15.09.2019 04:00:00 8,7 8,6 7,3 12,7 18,2 17,0 2 1 4 2 NW 1028,1 9 0 0,0
15.09.2019 03:00:00 9,4 9,1 7,2 13,3 18,5 17,1 1 0 6 3 N 1028,6 9 0 0,0
15.09.2019 02:00:00 10,4 9,5 8,2 14,0 18,7 17,1 5 3 10 5 E 1028,6 6 0 0,0
15.09.2019 01:00:00 11,1 11,0 8,4 14,6 18,9 17,1 4 2 6 3 E 1028,9 8 0 0,0
15.09.2019 00:00:00 11,3 11,1 8,9 15,4 19,1 17,1 2 1 4 2 ENE 1029,3 5 0 0,0
14.09.2019 23:00:00 12,4 12,3 9,4 16,4 19,2 17,1 2 1 3 2 S 1029,0 1,3 0 0,0
14.09.2019 22:00:00 13,4 12,4 10,5 17,6 19,3 17,1 3 1 6 3 SSE 1028,9 20 0 0,0
14.09.2019 21:00:00 15,3 13,6 11,7 19,1 19,3 17,1 4 2 6 4 E 1028,5 15 0 0,0
14.09.2019 20:00:00 16,7 14,2 13,9 21,2 19,2 17,1 5 3 11 6 E 1028,2 19 5 0,0
14.09.2019 19:00:00 20,1 14,5 19,8 23,8 19,1 17,1 8 4 16 9 E 1027,3 30 60 0,0
14.09.2019 18:00:00 21,5 14,9 22,9 25,8 18,8 17,1 10 5 18 10 ESE 1027,2 36 57 0,0
14.09.2019 17:00:00 22,2 14,8 24,5 26,9 18,5 17,1 13 7 26 14 ENE 1027,4 33 39 0,0
14.09.2019 16:00:00 22,4 14,6 28,2 27,8 18,2 17,1 12 7 24 13 ENE 1027,7 27 56 0,0
14.09.2019 15:00:00 22,1 15,1 26,5 27,3 17,9 17,1 13 7 22 12 E 1028,1 30 31 0,0
14.09.2019 14:00:00 22,2 15,1 27,7 27,5 17,6 17,1 11 6 19 10 E 1028,5 38 48 0,0
14.09.2019 13:00:00 21,7 15,1 26,7 25,9 17,4 17,1 11 6 21 11 ESE 1028,8 32 60 0,0
14.09.2019 12:00:00 20,4 14,5 24,7 23,6 17,3 17,1 13 7 21 12 E 1029,7 22 60 0,0
14.09.2019 11:00:00 19,6 14,2 23,5 21,2 17,3 17,1 13 7 20 11 ESE 1030,3 24 59 0,0
14.09.2019 10:00:00 18,5 14,5 20,9 18,7 17,3 17,1 13 7 19 10 E 1030,6 18 50 0,0
14.09.2019 09:00:00 16,6 14,5 17,8 16,3 17,4 17,1 6 3 9 5 E 1030,8 19 0 0,0
14.09.2019 08:00:00 14,6 14,3 14,7 15,2 17,5 17,1 4 2 6 3 S 1030,9 12 0 0,0
14.09.2019 07:00:00 13,9 13,6 12,3 15,1 17,6 17,1 0 0 6 3 N 1030,8 6 0 0,0
14.09.2019 06:00:00 14,1 13,5 13,5 15,4 17,7 17,1 0 0 5 3 N 1031,0 12 0 0,0
14.09.2019 05:00:00 14,7 14,1 14,2 15,6 17,8 17,2 0 0 7 4 N 1030,6 13 0 0,0
14.09.2019 04:00:00 14,4 13,9 12,0 15,8 18,0 17,2 4 2 5 3 W 1030,7 12 0 0,0
14.09.2019 03:00:00 14,5 13,9 13,7 16,1 18,1 17,2 0 0 5 3 N 1031,0 19 0 0,0
14.09.2019 02:00:00 14,4 13,7 14,2 16,2 18,3 17,2 2 1 6 3 S 1031,1 17 0 0,0
14.09.2019 01:00:00 14,1 13,5 14,1 16,1 18,5 17,2 4 2 6 4 W 1031,4 16 0 0,0
14.09.2019 00:00:00 12,7 12,2 11,0 16,1 18,6 17,2 2 1 4 2 W 1031,8 15 0 0,0
13.09.2019 23:00:00 13,5 13,1 11,2 17,2 18,7 17,2 3 1 4 2 W 1031,8 15 0 0,0
13.09.2019 22:00:00 14,4 13,2 12,4 18,4 18,7 17,2 3 2 9 5 NW 1031,4 26 0 0,0
13.09.2019 21:00:00 18,8 13,8 16,5 20,0 18,7 17,2 8 5 15 8 NE 1030,5 56 0 0,0
13.09.2019 20:00:00 20,3 14,1 18,2 22,1 18,5 17,2 10 5 18 10 NNE 1029,9 49 9 0,0
13.09.2019 19:00:00 22,3 15,8 21,3 25,0 18,2 17,2 3 2 10 5 NNW 1029,2 56 60 0,0
13.09.2019 18:00:00 23,4 13,4 25,3 27,0 17,9 17,2 6 3 11 6 NW 1029,1 50 59 0,0
13.09.2019 17:00:00 23,8 14,6 26,0 28,2 17,5 17,2 10 5 21 11 WNW 1029,3 27 55 0,0
13.09.2019 16:00:00 23,5 13,7 27,4 28,5 17,1 17,2 9 5 22 12 NNW 1029,6 33 55 0,0
13.09.2019 15:00:00 23,7 13,8 28,8 27,6 16,7 17,2 12 7 24 13 NW 1029,9 35 46 0,0
13.09.2019 14:00:00 23,2 13,2 30,2 27,4 16,3 17,2 13 7 21 12 NNW 1030,1 28 58 0,0
13.09.2019 13:00:00 22,4 12,9 28,5 25,5 16,1 17,3 9 5 21 11 NNW 1030,4 26 60 0,0
13.09.2019 12:00:00 21,6 12,9 26,1 23,0 15,9 17,3 6 3 12 7 W 1030,6 21 60 0,0
13.09.2019 11:00:00 20,5 14,1 23,9 19,9 15,9 17,3 5 3 11 6 SSW 1031,0 25 60 0,0
13.09.2019 10:00:00 18,3 13,1 21,3 17,2 15,9 17,3 2 1 6 3 SSE 1031,6 33 60 0,0
13.09.2019 09:00:00 15,1 11,3 16,4 14,0 16,0 17,3 0 0 4 2 N 1032,2 23 60 0,0
13.09.2019 08:00:00 12,7 11,3 12,0 12,0 16,2 17,3 1 1 3 2 W 1032,5 9 39 0,0
13.09.2019 07:00:00 9,8 9,4 7,7 12,4 16,3 17,3 2 1 4 2 NNW 1032,9 9 0 0,0
13.09.2019 06:00:00 11,4 11,3 10,8 12,9 16,4 17,3 0 0 4 2 N 1032,5 6 0 0,0
13.09.2019 05:00:00 11,8 11,6 10,7 13,3 16,5 17,3 0 0 4 2 N 1032,1 14 0 0,0
13.09.2019 04:00:00 12,0 11,8 11,7 13,5 16,6 17,3 2 1 6 4 S 1032,1 10 0 0,0
13.09.2019 03:00:00 11,9 11,7 11,9 13,3 16,8 17,3 0 0 3 2 N 1032,2 18 0 0,0
13.09.2019 02:00:00 11,2 11,0 11,5 12,9 17,0 17,4 0 0 3 2 N 1032,5 16 0 0,0
13.09.2019 01:00:00 10,1 9,7 8,3 12,9 17,2 17,4 0 0 3 2 N 1032,7 36 0 0,0
13.09.2019 00:00:00 10,4 10,1 8,4 13,6 17,3 17,4 0 0 3 2 N 1032,7 17 0 0,0
12.09.2019 23:00:00 11,1 10,7 9,3 14,5 17,4 17,4 4 2 4 2 W 1032,4 20 0 0,0
12.09.2019 22:00:00 12,1 12,0 9,6 15,7 17,4 17,4 0 0 3 1 N 1031,9 18 0 0,0
12.09.2019 21:00:00 13,3 12,7 10,7 17,2 17,3 17,4 2 1 4 2 WNW 1031,4 30 0 0,0
12.09.2019 20:00:00 15,3 13,5 12,7 19,5 17,2 17,4 0 0 3 2 N 1030,6 43 11 0,0
12.09.2019 19:00:00 20,5 13,5 20,7 22,1 16,9 17,4 4 2 11 6 NW 1029,6 42 60 0,0
12.09.2019 18:00:00 22,6 12,0 24,6 23,6 16,6 17,4 6 3 21 11 NW 1029,2 45 59 0,0
12.09.2019 17:00:00 22,7 11,2 25,3 24,1 16,3 17,4 8 4 19 10 W 1029,3 42 59 0,0
12.09.2019 16:00:00 22,1 11,1 25,8 23,8 16,0 17,4 11 6 21 11 WNW 1029,9 32 55 0,0
12.09.2019 15:00:00 22,0 11,1 26,3 23,2 15,7 17,4 9 5 19 11 NW 1030,2 46 52 0,0
12.09.2019 14:00:00 21,4 9,4 25,9 21,3 15,5 17,5 3 2 14 8 NW 1030,5 28 12 0,0
12.09.2019 13:00:00 19,5 10,0 22,6 20,3 15,3 17,5 10 5 19 10 W 1031,4 22 1 0,0
12.09.2019 12:00:00 19,2 11,9 21,9 19,3 15,2 17,5 6 4 13 7 W 1031,5 29 3 0,0
12.09.2019 11:00:00 17,3 11,7 18,9 17,4 15,1 17,5 5 3 8 5 S 1031,5 37 0 0,0
12.09.2019 10:00:00 15,6 13,1 16,4 15,1 15,2 17,5 3 2 6 3 SE 1031,3 22 0 0,0
12.09.2019 09:00:00 14,2 12,1 14,1 13,5 15,2 17,5 3 1 5 3 S 1031,1 17 1 0,0
12.09.2019 08:00:00 11,7 11,2 11,7 12,2 15,3 17,5 0 0 6 3 N 1031,3 11 0 0,0
12.09.2019 07:00:00 10,9 10,6 10,9 11,7 15,5 17,5 0 0 5 3 N 1030,8 8 0 0,0
12.09.2019 06:00:00 10,4 10,0 10,4 11,4 15,6 17,5 4 2 7 4 W 1030,5 13 0 0,0
12.09.2019 05:00:00 9,4 9,2 9,6 11,0 15,8 17,6 3 2 4 2 WNW 1030,3 9 0 0,0
12.09.2019 04:00:00 8,5 8,2 7,2 10,8 15,9 17,6 2 1 5 3 SW 1030,0 13 0 0,0
12.09.2019 03:00:00 8,5 8,0 7,9 11,0 16,1 17,6 0 0 4 2 N 1029,9 12 0 0,0
12.09.2019 02:00:00 8,8 8,3 7,4 11,3 16,3 17,6 3 1 5 3 E 1029,4 16 0 0,0
12.09.2019 01:00:00 8,9 8,7 8,2 11,6 16,5 17,6 3 2 6 3 NNW 1028,9 11 0 0,0
12.09.2019 00:00:00 8,6 8,1 7,0 12,2 16,6 17,6 4 2 5 3 W 1028,6 16 0 0,0
11.09.2019 23:00:00 9,5 9,1 8,0 13,1 16,7 17,6 3 2 4 2 NW 1027,9 19 0 0,0
11.09.2019 22:00:00 10,4 10,0 8,0 14,1 16,8 17,6 0 0 5 3 N 1027,2 16 0 0,0
11.09.2019 21:00:00 11,6 10,3 9,1 15,6 16,7 17,6 4 2 9 5 WNW 1026,6 26 0 0,0
11.09.2019 20:00:00 13,5 11,6 10,7 17,9 16,6 17,7 3 1 5 3 NNW 1025,1 20 13 0,0
11.09.2019 19:00:00 18,2 11,9 16,9 20,3 16,3 17,7 5 3 16 9 WNW 1023,9 44 60 0,0
11.09.2019 18:00:00 20,0 10,9 21,2 22,6 16,0 17,7 9 5 13 7 WNW 1023,1 36 60 0,0
11.09.2019 17:00:00 20,8 11,3 22,7 23,9 15,6 17,7 4 2 13 7 W 1022,4 30 55 0,0
11.09.2019 16:00:00 20,5 10,9 24,7 24,8 15,2 17,7 4 2 9 5 ESE 1022,6 29 57 0,0
11.09.2019 15:00:00 19,8 11,6 24,5 22,8 14,9 17,7 8 4 13 7 W 1023,0 54 26 0,0
11.09.2019 14:00:00 19,0 10,6 21,7 21,9 14,6 17,7 6 3 16 8 W 1023,3 27 21 0,0
11.09.2019 13:00:00 18,0 10,8 22,2 21,1 14,4 17,7 7 4 14 7 WNW 1023,2 21 60 0,0
11.09.2019 12:00:00 15,9 10,6 18,7 18,5 14,4 17,7 5 3 12 6 W 1023,6 20 42 0,0
11.09.2019 11:00:00 13,4 10,5 14,4 14,7 14,4 17,8 5 3 8 4 W 1024,1 14 0 0,1
11.09.2019 10:00:00 11,7 9,9 11,8 12,1 14,4 17,8 4 2 8 4 WSW 1024,0 12 0 0,0
11.09.2019 09:00:00 10,7 9,7 10,9 11,0 14,5 17,8 5 3 7 4 WSW 1023,6 10 0 0,0
11.09.2019 08:00:00 9,7 9,3 9,9 10,1 14,6 17,8 4 2 7 4 WSW 1023,3 9 0 0,0
11.09.2019 07:00:00 8,0 7,8 7,7 9,6 14,8 17,8 4 2 5 3 NW 1023,0 8 0 0,0
11.09.2019 06:00:00 7,7 7,4 7,4 9,5 14,9 17,8 4 2 6 3 WNW 1022,3 8 0 0,0
11.09.2019 05:00:00 7,4 7,2 7,2 9,5 15,1 17,8 4 2 4 2 NW 1022,1 8 0 0,0
11.09.2019 04:00:00 7,2 7,1 6,0 9,4 15,3 17,8 0 0 6 4 N 1021,9 8 0 0,0
11.09.2019 03:00:00 7,2 7,1 6,4 9,6 15,5 17,9 6 3 6 4 W 1022,1 7 0 0,0
11.09.2019 02:00:00 6,9 6,7 5,6 9,9 15,7 17,9 0 0 6 3 N 1021,9 13 0 0,0
11.09.2019 01:00:00 7,4 7,0 5,4 10,5 15,9 17,9 4 2 6 3 NNW 1021,6 8 0 0,0
11.09.2019 00:00:00 8,2 7,7 6,7 11,2 16,0 17,9 3 1 8 5 SSE 1021,5 10 0 0,0
10.09.2019 23:00:00 10,0 9,0 7,6 12,0 16,1 17,9 7 4 9 5 W 1020,9 19 0 0,0
10.09.2019 22:00:00 9,3 8,4 7,6 13,1 16,2 17,9 5 3 7 4 W 1020,6 22 0 0,0
10.09.2019 21:00:00 11,1 9,4 8,4 14,5 16,1 17,9 4 2 5 3 WSW 1019,8 34 0 0,0
10.09.2019 20:00:00 12,9 9,8 10,0 16,6 16,0 17,9 4 2 11 6 NNE 1018,7 34 15 0,0
10.09.2019 19:00:00 17,3 9,7 17,2 19,2 15,7 17,9 9 5 13 7 NE 1017,5 58 60 0,0
10.09.2019 18:00:00 18,4 9,8 20,1 21,3 15,4 17,9 11 6 18 10 NE 1016,9 49 60 0,0
10.09.2019 17:00:00 18,7 9,3 20,9 22,6 15,0 17,9 8 4 16 9 E 1016,6 59 60 0,0
10.09.2019 16:00:00 18,4 8,2 22,7 23,2 14,6 18,0 8 4 21 11 ENE 1016,8 37 60 0,0
10.09.2019 15:00:00 17,8 9,2 23,3 23,0 14,2 18,0 8 4 19 11 E 1017,0 35 60 0,0
10.09.2019 14:00:00 16,9 9,7 22,6 22,3 13,9 18,0 13 7 19 10 ENE 1017,3 19 58 0,0
10.09.2019 13:00:00 15,9 10,5 21,5 20,4 13,6 18,0 9 5 17 9 ENE 1017,8 22 58 0,0
10.09.2019 12:00:00 14,1 9,8 17,2 17,8 13,5 18,0 10 5 19 10 ESE 1018,3 20 59 0,0
10.09.2019 11:00:00 11,8 8,9 14,2 14,7 13,4 18,0 6 3 11 6 SSE 1018,7 17 36 0,0
10.09.2019 10:00:00 8,5 7,8 10,4 11,9 13,5 18,0 3 2 5 3 SE 1019,3 3,2 14 0,0
10.09.2019 09:00:00 6,7 6,5 8,1 9,7 13,5 18,0 0 0 5 3 N 1019,6 0,3 0 0,0
10.09.2019 08:00:00 5,5 5,5 6,6 8,5 13,6 18,1 3 1 6 3 ENE 1019,3 0,2 0 0,0
10.09.2019 07:00:00 5,3 5,3 5,8 8,4 13,7 18,1 4 2 8 4 E 1018,6 0,2 0 0,0
10.09.2019 06:00:00 5,5 5,4 6,1 8,4 13,8 18,1 0 0 4 2 N 1018,3 0,1 0 0,1
10.09.2019 05:00:00 5,7 5,7 6,1 8,3 13,9 18,1 3 2 5 3 S 1018,3 0,1 0 0,0

tt = temperature
td = dewpoint
tt 5cm = temperature 5cm
tt -5cm = temperature -5cm
tt -20cm = temperature -20cm
tt -100cm = temperature -100cm
ff = wind speed
fx = gusts
dd = wind direction
ppp = reduced air pressure
vv = visibility
sd = sunshine duration
rr = precipitation

Next stations